Location: Unspecified
(0.0000°N, 0.0000°E)
Time: 03:17:59
(UTC+00:00)

SAR-Lupe-2 - Visible Passes

Search period start: 24 September 2018 00:00
Search period end: 04 October 2018 00:00
Orbit: 482 x 484 km, 98.2° (Epoch: 18 September)

Date Brightness Start Highest point End Pass type
(mag) Time Alt. Az. Time Alt. Az. Time Alt. Az.
27 Sep 6.3 04:15:56 10° S 04:16:00 10° S 04:16:00 10° S visible
30 Sep 5.7 04:35:05 10° SSW 04:35:51 15° SSW 04:35:51 15° SSW visible
01 Oct 5.7 04:09:58 10° SSE 04:11:01 19° SSE 04:11:01 19° SSE visible
02 Oct 6.4 03:45:36 10° SE 03:46:10 14° SE 03:46:10 14° SE visible
03 Oct 5.5 04:54:45 10° SW 04:55:39 14° SW 04:55:39 14° SW visible
